SALIDA Weather Reports


time (UTC)temp
C
wind
direction
speed
KPH
gust
KPH
rain 1hr
cm
rain 24hr
cm
rain mn
cm
humidity
%
barometer
mb
20260508043119 10 321 3.2 4.8 0.00 0.00 0.00 50 1012.0
20260508041619 10 345 4.8 6.4 0.00 0.00 0.00 47 1012.2
20260508040119 11 328 4.8 8.0 0.00 0.00 0.00 44 1012.1
20260508034619 12 351 0.0 1.6 0.00 0.00 0.00 43 1012.2
20260508033119 12 351 0.0 1.6 0.00 0.00 0.00 43 1012.3
20260508031619 12 329 4.8 8.0 0.00 0.00 0.00 41 1012.2
20260508030119 12 326 4.8 8.0 0.00 0.00 0.00 41 1012.1
20260508024619 13 311 8.0 17.7 0.00 0.00 0.00 40 1011.7
20260508023120 13 356 9.7 14.5 0.00 0.00 0.00 38 1011.6
20260508021620 14 271 6.4 11.3 0.00 0.00 0.00 36 1011.4
20260508020120 14 304 4.8 19.3 0.00 0.00 0.00 35 1011.3
20260508014620 15 294 4.8 8.0 0.00 0.00 0.00 36 1011.5
20260508013120 15 335 4.8 6.4 0.00 0.00 0.00 35 1011.7
20260508011620 15 333 4.8 9.7 0.00 0.00 0.00 36 1011.8
20260508010120 16 318 4.8 6.4 0.00 0.00 0.00 33 1011.8
20260508004620 16 1 4.8 12.9 0.00 0.00 0.00 31 1012.0
20260508003120 16 20 6.4 20.9 0.00 0.00 0.00 31 1011.9
20260508001620 17 28 6.4 22.5 0.00 0.00 0.00 30 1012.2
20260508000120 17 357 8.0 20.9 0.00 0.00 0.00 29 1012.2
20260507234620 17 30 8.0 14.5 0.00 0.00 0.00 30 1012.1
20260507233120 17 357 6.4 14.5 0.00 0.00 0.00 33 1012.3
20260507231620 16 1 3.2 9.7 0.00 0.00 0.00 32 1012.5
20260507230120 16 304 4.8 16.1 0.00 0.00 0.00 35 1012.5
20260507224620 16 358 3.2 6.4 0.00 0.00 0.00 34 1012.7
20260507223120 16 335 3.2 8.0 0.00 0.00 0.00 35 1012.8
20260507221620 16 349 6.4 11.3 0.00 0.00 0.00 34 1013.2
20260507220120 16 34 6.4 12.9 0.00 0.00 0.00 35 1013.4
20260507214620 16 40 6.4 6.4 0.00 0.00 0.00 33 1013.9
20260507213120 17 296 11.3 24.1 0.00 0.00 0.00 33 1014.0
20260507211620 17 333 9.7 16.1 0.00 0.00 0.00 33 1014.3
20260507210120 17 336 8.0 16.1 0.00 0.00 0.00 33 1014.5
20260507204620 17 224 8.0 14.5 0.00 0.00 0.00 34 1014.7
20260507203120 16 224 8.0 12.9 0.00 0.03 0.00 33 1015.1
20260507201620 16 273 9.7 19.3 0.00 0.03 0.00 35 1015.5
20260507200120 16 283 8.0 16.1 0.00 0.03 0.00 34 1015.8
20260507194620 16 243 8.0 25.7 0.00 0.03 0.00 34 1015.9
20260507193120 15 226 6.4 17.7 0.00 0.15 0.00 36 1016.2
20260507191620 15 100 4.8 6.4 0.00 0.15 0.00 35 1016.4
20260507190120 14 5 4.8 9.7 0.00 0.15 0.00 38 1016.8
20260507184620 13 110 4.8 11.3 0.00 0.15 0.00 39 1017.2
20260507183120 13 46 4.8 12.9 0.00 0.43 0.00 42 1018.0
20260507181620 12 87 3.2 12.9 0.00 0.43 0.00 42 1018.2
20260507180120 12 94 3.2 8.0 0.00 0.43 0.00 44 1018.9
20260507174620 11 113 3.2 4.8 0.00 0.43 0.00 41 1019.3
20260507173120 11 113 3.2 8.0 0.00 0.71 0.00 42 1019.8
20260507171620 10 359 4.8 9.7 0.00 0.71 0.00 44 1020.3
20260507170159 10 323 4.8 11.3 0.00 0.71 0.00 47 1020.8
20260507170120 10 323 4.8 11.3 0.00 0.71 0.00 47 1020.8
20260507164620 8 20 6.4 14.5 0.00 0.71 0.00 46 1021.3
20260507163120 8 359 4.8 9.7 0.00 0.76 0.00 49 1021.4
20260507161620 7 15 6.4 12.9 0.00 0.76 0.00 50 1021.6
20260507160120 7 1 4.8 9.7 0.00 0.76 0.00 55 1021.8
20260507154620 5 336 3.2 6.4 0.00 0.76 0.00 59 1022.2
20260507153121 5 313 3.2 6.4 0.00 0.76 0.00 62 1022.5
20260507151621 3 343 3.2 6.4 0.00 0.76 0.00 64 1022.7
20260507150121 2 304 4.8 8.0 0.00 0.76 0.00 66 1022.8
20260507144621 2 331 1.6 6.4 0.00 0.76 0.00 67 1022.9
20260507143121 1 356 3.2 8.0 0.00 0.76 0.00 70 1023.2
20260507141621 1 328 3.2 6.4 0.00 0.76 0.00 70 1023.3
20260507140121 0 328 3.2 8.0 0.00 0.76 0.00 70 1023.5
20260507134621 0 299 0.0 0.0 0.00 0.76 0.00 77 1023.6
20260507133121 -2 299 0.0 1.6 0.00 0.76 0.00 82 1023.7
20260507131621 -2 299 0.0 0.0 0.00 0.76 0.00 82 1023.6
20260507130121 -3 299 0.0 0.0 0.00 0.76 0.00 83 1023.4
20260507124621 -3 299 0.0 0.0 0.00 0.76 0.00 84 1023.1
20260507123121 -3 299 1.6 4.8 0.00 0.76 0.00 83 1023.0
20260507121621 -3 8 0.0 0.0 0.00 0.76 0.00 84 1022.8
20260507120121 -3 314 0.0 4.8 0.00 0.76 0.00 84 1022.8
20260507114621 -3 314 0.0 0.0 0.00 0.76 0.00 82 1022.7
20260507113121 -3 314 1.6 3.2 0.00 0.76 0.00 82 1022.7
20260507111621 -3 333 1.6 4.8 0.00 0.76 0.00 83 1022.6
20260507110121 -3 307 3.2 3.2 0.00 0.76 0.00 84 1022.6
20260507104621 -3 320 1.6 4.8 0.00 0.76 0.00 86 1022.3
20260507103121 -3 320 1.6 4.8 0.00 0.76 0.00 85 1022.5
20260507101621 -3 320 0.0 4.8 0.00 0.76 0.00 84 1022.6
20260507100121 -3 320 0.0 3.2 0.00 0.76 0.00 84 1022.5
20260507094621 -3 320 1.6 3.2 0.00 0.76 0.00 85 1022.3
20260507093121 -3 320 0.0 0.0 0.00 0.76 0.00 86 1022.2
20260507091621 -3 320 0.0 0.0 0.00 0.76 0.00 85 1022.1
20260507090121 -3 320 0.0 1.6 0.00 0.76 0.00 84 1022.3
20260507084621 -2 320 0.0 3.2 0.00 0.76 0.76 84 1022.2
20260507083121 -2 320 1.6 1.6 0.00 0.76 0.76 82 1022.3
20260507081621 -2 320 0.0 3.2 0.00 0.76 0.76 82 1022.0
20260507080121 -2 320 1.6 6.4 0.00 0.76 0.76 82 1021.8
20260507074621 -2 321 1.6 3.2 0.00 0.76 0.76 84 1021.7
20260507073121 -2 321 1.6 4.8 0.00 0.76 0.76 85 1021.6
20260507071621 -2 321 0.0 3.2 0.00 0.76 0.76 84 1021.4
20260507070121 -2 321 1.6 4.8 0.00 0.76 0.76 84 1021.2
20260507064621 -2 321 0.0 3.2 0.00 0.76 0.76 84 1021.2
20260507063121 -2 321 0.0 0.0 0.00 0.76 0.76 85 1021.2
20260507061621 -2 321 0.0 4.8 0.00 0.76 0.76 85 1021.4
20260507060121 -2 321 0.0 3.2 0.00 0.76 0.76 84 1021.1
20260507054621 -1 321 1.6 4.8 0.00 0.76 0.76 83 1021.0
20260507053122 -1 321 0.0 1.6 0.00 0.76 0.76 84 1020.6
20260507051622 -1 321 1.6 3.2 0.00 0.76 0.76 84 1020.5
20260507050122 -1 321 1.6 4.8 0.00 0.76 0.76 83 1020.4
20260507044622 -1 320 1.6 6.4 0.00 0.76 0.76 83 1020.3